sat.trackr.live / text

‹ back to catalog

STARLINK-31222

NORAD 58828 · 2024-017C

PAYLOAD ACTIVE UNKNOWN

§ Identity

Operator
Country
US
Launch date
2024-01-24
Launch site
AFWTR
Launch vehicle
Mass (kg)
RCS (m²)

Purposes: comms

External: N2YO · Heavens-Above · Gunter

§ Orbital elements

Epoch: 2026-05-25T04:34:15.412224Z

Period
94.11 min
Inclination
53.1599°
Eccentricity
0.0001084
Mean motion
15.30197413 rev/d
Perigee alt
474.5 km
Apogee alt
476.0 km
Semi-major
6,853.4 km
B*
3.4797e-5
RAAN
208.6393°
Arg perigee
79.1899°
Mean anomaly
280.9224°
Rev number
13,177

§ Raw data

STARLINK-312221 58828U 24017C   26145.19045616  .00000672  00000+0  34797-4 0  99932 58828  53.1599 208.6393 0001084  79.1899 280.9224 15.30197413131772

JSON: /api/v1/satellites/58828 · /tle

For live sub-satellite position, see the globe view (requires WebGL).

§ Visibility from observer

Set your observer location to see the next 7 days of passes ≥ 10°. The values pass through the URL so the page stays shareable.

No JS? Fill the form by hand. The geolocation button needs JavaScript.